| time (UTC) | temp F | wind direction | speed MPH | gust MPH | rain 1hr in | rain 24hr in | rain mn in | humidity % | barometer mb |
| 20260504180005 | 76 | 157 | 1.0 | 5.0 | 0.00 | 0.00 | 0.00 | 67 | 1007.3 |
| 20260504175502 | 75 | 43 | 0.0 | 5.0 | 0.00 | 0.00 | 0.00 | 66 | 1007.3 |
| 20260504175001 | 73 | 233 | 0.0 | 3.0 | 0.00 | 0.00 | 0.00 | 68 | 1007.6 |
| 20260504174501 | 72 | 248 | 0.0 | 3.0 | 0.00 | 0.00 | 0.00 | 74 | 1007.7 |
| 20260504174001 | 71 | 250 | 0.0 | 3.0 | 0.00 | 0.00 | 0.00 | 72 | 1007.7 |
| 20260504173002 | 69 | 95 | 0.0 | 2.0 | 0.00 | 0.00 | 0.00 | 76 | 1007.8 |
| 20260504172501 | 68 | 167 | 0.0 | 5.0 | 0.00 | 0.00 | 0.00 | 78 | 1007.9 |
| 20260504172001 | 67 | 167 | 0.0 | 5.0 | 0.00 | 0.00 | 0.00 | 79 | 1007.9 |
| 20260504171501 | 66 | 180 | 0.0 | 0.0 | 0.00 | 0.00 | 0.00 | 83 | 1008.0 |
| 20260504171000 | 65 | 180 | 0.0 | 0.0 | 0.00 | 0.00 | 0.00 | 83 | 1008.3 |
| 20260504170502 | 65 | 180 | 0.0 | 0.0 | 0.00 | 0.00 | 0.00 | 83 | 1008.6 |
| 20260504151000 | 71 | 92 | 0.0 | 0.0 | 0.00 | 0.00 | 0.00 | 65 | 1010.3 |
| 20260504150500 | 71 | 91 | 0.0 | 3.0 | 0.00 | 0.00 | 0.00 | 65 | 1010.4 |
| 20260504140501 | 68 | 168 | 0.0 | 4.0 | 0.00 | 0.00 | 0.00 | 72 | 1009.9 |
| 20260504130501 | 59 | 200 | 0.0 | 3.0 | 0.00 | 0.00 | 0.00 | 90 | 1010.7 |
| 20260504100459 | 54 | 209 | 0.0 | 0.0 | 0.00 | 0.00 | 0.00 | 92 | 1010.7 |
| 20260504081959 | 57 | 209 | 0.0 | 0.0 | 0.00 | 0.00 | 0.00 | 82 | 1010.6 |
| 20260504081500 | 58 | 209 | 0.0 | 0.0 | 0.00 | 0.00 | 0.00 | 81 | 1010.6 |
| 20260504081000 | 58 | 209 | 0.0 | 0.0 | 0.00 | 0.00 | 0.00 | 80 | 1010.6 |
| 20260504080500 | 59 | 209 | 0.0 | 0.0 | 0.00 | 0.00 | 0.00 | 80 | 1010.7 |
| 20260504050501 | 66 | 203 | 3.0 | 10.0 | 0.00 | 0.00 | 0.00 | 64 | 1010.4 |
| 20260504045501 | 66 | 223 | 2.0 | 7.0 | 0.00 | 0.00 | 0.00 | 64 | 1010.5 |
| 20260504044502 | 66 | 175 | 2.0 | 10.0 | 0.00 | 0.00 | 0.00 | 63 | 1010.9 |
| 20260504044001 | 66 | 184 | 3.0 | 10.0 | 0.00 | 0.00 | 0.00 | 63 | 1011.0 |
| 20260504043502 | 67 | 167 | 2.0 | 9.0 | 0.00 | 0.00 | 0.00 | 63 | 1011.2 |
| 20260504043002 | 67 | 202 | 2.0 | 9.0 | 0.00 | 0.00 | 0.00 | 63 | 1011.4 |
| 20260504042501 | 67 | 207 | 2.0 | 12.0 | 0.00 | 0.00 | 0.00 | 62 | 1011.4 |
| 20260504042001 | 67 | 200 | 2.0 | 12.0 | 0.00 | 0.00 | 0.00 | 62 | 1011.5 |
| 20260504041503 | 67 | 187 | 3.0 | 10.0 | 0.00 | 0.00 | 0.00 | 62 | 1011.5 |
| 20260504040502 | 67 | 211 | 3.0 | 11.0 | 0.00 | 0.00 | 0.00 | 61 | 1011.6 |
| 20260504040004 | 67 | 192 | 2.0 | 12.0 | 0.00 | 0.00 | 0.00 | 61 | 1011.6 |
| 20260504035502 | 68 | 151 | 2.0 | 8.0 | 0.00 | 0.00 | 0.00 | 61 | 1011.7 |
| 20260504035002 | 68 | 191 | 3.0 | 12.0 | 0.00 | 0.00 | 0.00 | 60 | 1011.6 |
| 20260504034502 | 68 | 132 | 3.0 | 12.0 | 0.00 | 0.00 | 0.00 | 60 | 1011.9 |
| 20260504034001 | 68 | 184 | 3.0 | 8.0 | 0.00 | 0.00 | 0.00 | 60 | 1011.9 |
| 20260504033002 | 67 | 160 | 2.0 | 6.0 | 0.00 | 0.00 | 0.00 | 60 | 1012.1 |
| 20260504032502 | 67 | 184 | 3.0 | 10.0 | 0.00 | 0.00 | 0.00 | 60 | 1012.0 |
| 20260504031502 | 67 | 209 | 2.0 | 7.0 | 0.00 | 0.00 | 0.00 | 60 | 1011.9 |
| 20260504031001 | 67 | 202 | 2.0 | 7.0 | 0.00 | 0.00 | 0.00 | 60 | 1012.0 |
| 20260504030501 | 67 | 183 | 2.0 | 6.0 | 0.00 | 0.00 | 0.00 | 60 | 1011.9 |
| 20260504025002 | 68 | 211 | 1.0 | 6.0 | 0.00 | 0.00 | 0.00 | 59 | 1011.7 |
| 20260504024502 | 68 | 226 | 1.0 | 7.0 | 0.00 | 0.00 | 0.00 | 59 | 1011.9 |
| 20260504024002 | 68 | 189 | 1.0 | 5.0 | 0.00 | 0.00 | 0.00 | 58 | 1011.9 |
| 20260504023501 | 68 | 164 | 1.0 | 6.0 | 0.00 | 0.00 | 0.00 | 58 | 1011.8 |
| 20260504022501 | 68 | 161 | 0.0 | 6.0 | 0.00 | 0.00 | 0.00 | 58 | 1011.8 |
| 20260504022001 | 68 | 160 | 1.0 | 6.0 | 0.00 | 0.00 | 0.00 | 58 | 1011.8 |
| 20260504021502 | 68 | 203 | 1.0 | 6.0 | 0.00 | 0.00 | 0.00 | 59 | 1011.7 |
| 20260504020502 | 67 | 200 | 0.0 | 4.0 | 0.00 | 0.00 | 0.00 | 58 | 1011.6 |
| 20260504020003 | 67 | 200 | 0.0 | 4.0 | 0.00 | 0.00 | 0.00 | 58 | 1011.6 |
| 20260504015001 | 67 | 200 | 1.0 | 5.0 | 0.00 | 0.00 | 0.00 | 59 | 1011.4 |
| 20260504014503 | 67 | 200 | 0.0 | 5.0 | 0.00 | 0.00 | 0.00 | 59 | 1011.5 |
| 20260504014002 | 68 | 205 | 0.0 | 5.0 | 0.00 | 0.00 | 0.00 | 59 | 1011.4 |
| 20260504013501 | 68 | 200 | 0.0 | 0.0 | 0.00 | 0.00 | 0.00 | 58 | 1011.4 |
| 20260504012501 | 69 | 201 | 0.0 | 0.0 | 0.00 | 0.00 | 0.00 | 57 | 1011.4 |
| 20260504012001 | 70 | 200 | 0.0 | 0.0 | 0.00 | 0.00 | 0.00 | 57 | 1011.4 |
| 20260504011502 | 70 | 200 | 0.0 | 0.0 | 0.00 | 0.00 | 0.00 | 55 | 1011.4 |
| 20260504011001 | 71 | 201 | 0.0 | 0.0 | 0.00 | 0.00 | 0.00 | 54 | 1011.4 |
| 20260504010004 | 72 | 201 | 0.0 | 5.0 | 0.00 | 0.00 | 0.00 | 52 | 1011.3 |
| 20260504005503 | 72 | 200 | 0.0 | 4.0 | 0.00 | 0.00 | 0.00 | 51 | 1011.4 |
| 20260504005001 | 73 | 200 | 1.0 | 4.0 | 0.00 | 0.00 | 0.00 | 51 | 1011.3 |
| 20260504004502 | 73 | 200 | 1.0 | 3.0 | 0.00 | 0.00 | 0.00 | 50 | 1011.2 |
| 20260504004001 | 73 | 201 | 1.0 | 3.0 | 0.00 | 0.00 | 0.00 | 49 | 1011.3 |
| 20260504003502 | 73 | 200 | 1.0 | 5.0 | 0.00 | 0.00 | 0.00 | 49 | 1011.3 |
| 20260504002502 | 74 | 204 | 1.0 | 6.0 | 0.00 | 0.00 | 0.00 | 49 | 1011.2 |
| 20260504001502 | 75 | 200 | 1.0 | 7.0 | 0.00 | 0.00 | 0.00 | 48 | 1011.3 |
| 20260504001001 | 75 | 202 | 2.0 | 7.0 | 0.00 | 0.00 | 0.00 | 47 | 1011.3 |
| 20260504000501 | 75 | 180 | 3.0 | 8.0 | 0.00 | 0.00 | 0.00 | 47 | 1011.3 |
| 20260504000003 | 75 | 179 | 2.0 | 8.0 | 0.00 | 0.00 | 0.00 | 47 | 1011.3 |
| 20260503235502 | 75 | 183 | 2.0 | 8.0 | 0.00 | 0.00 | 0.00 | 46 | 1011.4 |
| 20260503235001 | 75 | 173 | 2.0 | 8.0 | 0.00 | 0.00 | 0.00 | 47 | 1011.4 |
| 20260503234502 | 76 | 187 | 3.0 | 10.0 | 0.00 | 0.00 | 0.00 | 46 | 1011.5 |
| 20260503234001 | 76 | 161 | 3.0 | 10.0 | 0.00 | 0.00 | 0.00 | 46 | 1011.5 |
| 20260503233501 | 76 | 176 | 2.0 | 10.0 | 0.00 | 0.00 | 0.00 | 45 | 1011.5 |
| 20260503232001 | 76 | 142 | 3.0 | 18.0 | 0.00 | 0.00 | 0.00 | 44 | 1011.4 |
| 20260503231502 | 76 | 186 | 3.0 | 11.0 | 0.00 | 0.00 | 0.00 | 44 | 1011.5 |
| 20260503231002 | 76 | 200 | 4.0 | 11.0 | 0.00 | 0.00 | 0.00 | 44 | 1011.6 |
| 20260503230503 | 76 | 210 | 3.0 | 13.0 | 0.00 | 0.00 | 0.00 | 43 | 1011.6 |
| 20260503230004 | 76 | 193 | 4.0 | 14.0 | 0.00 | 0.00 | 0.00 | 43 | 1011.7 |
| 20260503225501 | 76 | 154 | 4.0 | 14.0 | 0.00 | 0.00 | 0.00 | 43 | 1011.7 |
| 20260503225001 | 77 | 211 | 3.0 | 10.0 | 0.00 | 0.00 | 0.00 | 42 | 1011.7 |
| 20260503224502 | 76 | 137 | 3.0 | 10.0 | 0.00 | 0.00 | 0.00 | 42 | 1011.8 |
| 20260503224001 | 76 | 82 | 2.0 | 10.0 | 0.00 | 0.00 | 0.00 | 42 | 1011.9 |
| 20260503223501 | 76 | 178 | 1.0 | 9.0 | 0.00 | 0.00 | 0.00 | 43 | 1011.8 |
| 20260503223002 | 76 | 227 | 2.0 | 9.0 | 0.00 | 0.00 | 0.00 | 43 | 1011.8 |
| 20260503222502 | 76 | 193 | 3.0 | 9.0 | 0.00 | 0.00 | 0.00 | 42 | 1011.9 |
| 20260503222001 | 76 | 171 | 3.0 | 13.0 | 0.00 | 0.00 | 0.00 | 42 | 1011.9 |
| 20260503221502 | 76 | 178 | 4.0 | 13.0 | 0.00 | 0.00 | 0.00 | 42 | 1011.9 |
| 20260503221001 | 76 | 178 | 4.0 | 13.0 | 0.00 | 0.00 | 0.00 | 41 | 1012.0 |
| 20260503220003 | 76 | 201 | 2.0 | 10.0 | 0.00 | 0.00 | 0.00 | 43 | 1012.0 |
| 20260503215502 | 76 | 139 | 4.0 | 16.0 | 0.00 | 0.00 | 0.00 | 43 | 1012.1 |
| 20260503215002 | 76 | 223 | 4.0 | 16.0 | 0.00 | 0.00 | 0.00 | 41 | 1012.0 |
| 20260503214502 | 76 | 134 | 3.0 | 15.0 | 0.00 | 0.00 | 0.00 | 42 | 1012.0 |
| 20260503214001 | 76 | 139 | 3.0 | 15.0 | 0.00 | 0.00 | 0.00 | 43 | 1012.1 |
| 20260503213501 | 76 | 176 | 3.0 | 10.0 | 0.00 | 0.00 | 0.00 | 43 | 1012.1 |
| 20260503213002 | 76 | 163 | 3.0 | 10.0 | 0.00 | 0.00 | 0.00 | 42 | 1012.1 |
| 20260503212501 | 76 | 146 | 4.0 | 15.0 | 0.00 | 0.00 | 0.00 | 43 | 1012.2 |
| 20260503212001 | 76 | 194 | 4.0 | 15.0 | 0.00 | 0.00 | 0.00 | 43 | 1012.4 |
| 20260503211501 | 76 | 261 | 4.0 | 12.0 | 0.00 | 0.00 | 0.00 | 43 | 1012.4 |
| 20260503211001 | 76 | 116 | 5.0 | 12.0 | 0.00 | 0.00 | 0.00 | 43 | 1012.5 |
| 20260503210501 | 76 | 195 | 5.0 | 16.0 | 0.00 | 0.00 | 0.00 | 42 | 1012.4 |
| 20260503210004 | 76 | 129 | 5.0 | 16.0 | 0.00 | 0.00 | 0.00 | 43 | 1012.6 |
| 20260503205002 | 76 | 155 | 4.0 | 12.0 | 0.00 | 0.00 | 0.00 | 43 | 1012.8 |
| 20260503204502 | 76 | 155 | 3.0 | 11.0 | 0.00 | 0.00 | 0.00 | 44 | 1012.7 |
| 20260503204001 | 76 | 309 | 3.0 | 10.0 | 0.00 | 0.00 | 0.00 | 44 | 1012.6 |
| 20260503203002 | 76 | 246 | 4.0 | 13.0 | 0.00 | 0.00 | 0.00 | 45 | 1013.1 |
| 20260503202001 | 76 | 173 | 5.0 | 15.0 | 0.00 | 0.00 | 0.00 | 43 | 1013.4 |
| 20260503201501 | 75 | 205 | 4.0 | 15.0 | 0.00 | 0.00 | 0.00 | 45 | 1013.6 |
| 20260503200502 | 75 | 225 | 5.0 | 17.0 | 0.00 | 0.00 | 0.00 | 44 | 1013.6 |
| 20260503200002 | 75 | 219 | 6.0 | 17.0 | 0.00 | 0.00 | 0.00 | 43 | 1013.6 |
| 20260503195500 | 75 | 271 | 4.0 | 14.0 | 0.00 | 0.00 | 0.00 | 43 | 1014.2 |
| 20260503195000 | 75 | 91 | 3.0 | 14.0 | 0.00 | 0.00 | 0.00 | 44 | 1014.2 |
| 20260503194500 | 75 | 106 | 5.0 | 15.0 | 0.00 | 0.00 | 0.00 | 45 | 1014.4 |
| 20260503194001 | 75 | 155 | 5.0 | 16.0 | 0.00 | 0.00 | 0.00 | 45 | 1014.4 |
| 20260503193001 | 75 | 155 | 4.0 | 11.0 | 0.00 | 0.00 | 0.00 | 45 | 1014.9 |
| 20260503192501 | 74 | 252 | 3.0 | 11.0 | 0.00 | 0.00 | 0.00 | 45 | 1015.0 |
| 20260503192000 | 74 | 207 | 4.0 | 10.0 | 0.00 | 0.00 | 0.00 | 46 | 1015.2 |
| 20260503191501 | 74 | 210 | 4.0 | 21.0 | 0.00 | 0.00 | 0.00 | 45 | 1015.2 |
| 20260503191000 | 74 | 223 | 5.0 | 21.0 | 0.00 | 0.00 | 0.00 | 45 | 1015.3 |
| 20260503185500 | 73 | 140 | 3.0 | 15.0 | 0.00 | 0.00 | 0.00 | 45 | 1015.7 |
| 20260503184500 | 73 | 211 | 3.0 | 11.0 | 0.00 | 0.00 | 0.00 | 45 | 1015.7 |
| 20260503184000 | 73 | 157 | 4.0 | 11.0 | 0.00 | 0.00 | 0.00 | 47 | 1016.0 |
| 20260503183000 | 72 | 211 | 3.0 | 12.0 | 0.00 | 0.00 | 0.00 | 46 | 1016.2 |
| 20260503182500 | 72 | 222 | 3.0 | 12.0 | 0.00 | 0.00 | 0.00 | 47 | 1016.6 |
| 20260503182000 | 72 | 144 | 3.0 | 11.0 | 0.00 | 0.00 | 0.00 | 45 | 1016.7 |
| 20260503181501 | 72 | 325 | 3.0 | 11.0 | 0.00 | 0.00 | 0.00 | 45 | 1016.8 |
| 20260503180500 | 71 | 167 | 4.0 | 12.0 | 0.00 | 0.00 | 0.00 | 49 | 1017.1 |